Home > Weather > Alert > Past weeks

Flag for Canada Weather for the Past 2 Weeks in Alert, Nunavut, Canada

Now
-13 °F

Extremely cold.


Feels Like: -41 °F
Forecast: -21 / -16 °F
Wind: 25 mph from West

Location: Kap Morris Jesup

Current Time: Feb 13, 2016 at 5:01:49 AM

Latest Report: Feb 13, 2016 at 4:00 AM


Visibility: N/A

Pressure: 30.22 "Hg

Humidity: 78%

Dew point: -18 °F

Location of AlertLocation

Historic Weather in Alert — Graph

°F

Alert Temperature Yesterday

Maximum temperature yesterday: -9 °F (at 8:00 AM)
Minimum temperature yesterday: -12 °F (at 12:00 AM)
Average temperature yesterday: -10 °F

High & Low Weather Summary for the Past Weeks

 TemperatureHumidityPressure
High-4 °F (Jan 30, 1:00 AM)84% (Jan 30, 1:00 AM)30.44 "Hg (Jan 30, 1:00 AM)
Low-35 °F (Feb 6, 10:00 PM)70% (Feb 6, 9:00 PM)29.65 "Hg (Jan 29, 3:00 AM)
Average-19 °F77%30.11 "Hg
* Reported Jan 29 3:00 AM — Feb 13 3:00 AM, Alert, Weather by CustomWeather, © 2016

Note: Actual official high and low records may vary slightly from our data, if they occured in-between our weather recording intervals... More about our weather records

Advertising

Alert Weather History for the Previous 24 Hours

 ConditionsComfort  
Time TempWeatherWind HumidityBarometerVisibility
3:00 AM
Sat, Feb 13
-12 °FExtremely cold.30 mph78%30.22 "HgN/A
2:00 AM-11 °FExtremely cold.28 mph79%30.23 "HgN/A
1:00 AM-11 °FExtremely cold.31 mph78%30.22 "HgN/A
12:00 AM-10 °FExtremely cold.35 mph78%30.21 "HgN/A
11:00 PM
Fri, Feb 12
-10 °FFrigid.31 mph79%30.23 "HgN/A
10:00 PM-10 °FFrigid.30 mph79%30.22 "HgN/A
3:00 PM-9 °FFrigid.28 mph79%30.15 "HgN/A
2:00 PM-9 °FFrigid.26 mph79%30.14 "HgN/A
1:00 PM-9 °FFrigid.26 mph79%30.12 "HgN/A
12:00 PM-10 °FFrigid.24 mph80%30.11 "HgN/A
11:00 AM-10 °FExtremely cold.24 mph79%30.10 "HgN/A
10:00 AM-10 °FFrigid.23 mph80%30.09 "HgN/A
9:00 AM-9 °FFrigid.22 mph79%30.08 "HgN/A
8:00 AM-9 °FFrigid.26 mph79%30.07 "HgN/A
7:00 AM-10 °FExtremely cold.32 mph79%30.06 "HgN/A
6:00 AM-10 °FExtremely cold.29 mph79%30.04 "HgN/A
5:00 AM-10 °FExtremely cold.30 mph80%30.01 "HgN/A
Weather by CustomWeather, © 2016

See weather overviewHow to use our weather pages